World > North America > United States > Mississippi

Hourly Clarkson, MS Regional Weather

Feedback E-mail the Weather

Quick WX

Clarkson, MS Weather Maps

°F °C°F °C
Clarkson Weather Map
UTC Time: 7/7/2022, 07:16
Your Time:

Clarkson, MS Regional Weather

Expires:202207070800;;882958
ASUS44 KJAN 070710
RWRMS 

MISSISSIPPI HOURLY WEATHER ROUNDUP
NATIONAL WEATHER SERVICE JACKSON MS
200 AM CDT THU JUL 07 2022

NOTE: "FAIR: INDICATES FEW OR NO CLOUDS BELOW 12,000 FEET WITH NO
SIGNIFICANT WEATHER AND/OR OBSTRUCTIONS TO VISIBILITY.


MSZ003>006-009-014>017-022>024-029>033-037>039-070800-
NORTHEAST MISSISSIPPI
  
CITY           SKY/WX    TMP DP  RH WIND       PRES   REMARKS
ABERDEEN       FAIR      75  75 100 S3        29.98S                  
COLUMBUS AFB   CLEAR     76  74  93 CALM      29.95R                  
CORINTH        CLEAR     77  75  94 CALM      29.95F                  
GOLDN TRIANGLE CLEAR     76  74  93 CALM      29.98S                  
TUPELO         PTCLDY    80  75  84 MISG      29.96S                  
$$


SKY/WX - Weather  TMP - Temperature  DP - Dew Point  RH - Humidity
WIND - Wind Direction/Speed PRES - Barometric Pressure VSB - Visibility
WCI - Wind Chill Index E13G22 Wind - East Wind 13 mph/Gusts of 22 mph

Trending Headlines

Clarkson Radar Loop



Clarkson Quick Facts


National Two Day Weather Forecast


E-mail the Clarkson Weather Forecast

Voice your opinion or tell us about page issues...